Probability
0 0 0 0 0 0 0 0 0 0 0 0 0 0 0 0 0 0 0 0 0 0 0 0 0 0 0 0 0 0 0 0 0 0 0 0 0 0
0 0 0 0 0 0 0 0 0 0 0 0 0 0 0 0 0 0 0 0 0 0 0 0 0 0 0 0 0 0 0 0 0 0 0 0 0 0
0 0 0 0 0 0 0 0 0 0 0 0 0 0 0 0 0 0 0 0 0 0 0 0 0 0 0 0 0 0 0 0 0 0 0 0 0 0
0 0 0 0 0 0 0 0 0 0 0 0 0 0 0 0 0 0 0 0 0 0 0 0 0 0 0 0 0 0 0 0 0 0 0 0 0 0
0 0 0 0 0 0 0 0 0 0 0 0 0 0 0 0 0 0 0 0 0 0 0 0 0 0 0 0 0 0 0 0 0 0 0 0 0 0
0 0 0 0 0 0 0 0 0 0 0 0 0 0 0 0 0 0 0 0 0 0 0 0 0 0 0 0 0 0 0 0 0 0 0 0 0 0
0 0 0 0 0 0 0 0 0 0 0 0 0 0 0 0 0 0 0 0 0 0 0 0 0 0 0 0 0 0 0 0 0 0 0 0 0 0
0 0 0 0 0 0 0 0 0 0 0 0 0 0 0 0 0 0 0 0 0 0 0 0 0 0 0 0 0 0 0 0 0 0 0 0 0 0
0 0 0 0 0 0 0 0 0 0 0 0 0 0 0 0 0 0 0 0 0 0 0 0 0 0 0 0 0 0 0 0 0 0 0 0 0 0
0 0 0 0 0 0 0 0 0 0 0 0 0 0 0 0 0 0 0 0 0 0 0 0 0 0 0 0 0 0 0 0 0 0 0 0 0 0
0 0 0 0 0 0 0 0 0 0 0 0 0 0 0 0 0 0 0 0 0 0 0 0 0 0 0 0 0 0 0 0 0 0 0 0 0 0
0 0 0 0 0 0 0 0 0 0 0 0 0 0 0 0 0 0 0 0 0 0 0 0 0 0 0 0 0 0 0 0 0 0 0 0 0 0
0 0 0 0 0 0 0 0 0 0 0 0 0 0 0 0 0 0 0 0 0 0 0 0 0 0 0 0 0 0 0 0 0 0 0 0 0 0
0 0 0 0 0 0 0 0 0 0 0 0 0 0 0 0 0 0 0 0 0 0 0 0 0 0 0 0 0 0 0 0 0 0 0 0 0 0
0 0 0 0 0 0 0 0 0 0 0 0 0 0 0 0 0 0 0 0 0 0 0 0 0 0 0 0 0 0 0 0 0 0 0 0 0 0
0 0 0 0 0 0 0 0 0 0 0 0 0 0 0 0 0 0 0 0 0 0 0 0 0 0 0 0 0 0 0 0 0 0 0 0 0 0
0 0 0 0 0 0 0 0 0 0 0 0 0 0 0 0 0 0 0 0 0 0 0 0 0 0 0 0 0 0 0 0 0 0 0 0 0 0
0 0 0 0 0 0 0 0 0 0 0 0 0 0 0 0 0 0 0 0 0 0 0 0 0 0 0 0 0 0 0 0 0 0 0 0 0 0
0 0 0 0 0 0 0 0 0 0 0 0 0 0 0 0 0 0 0 0 0 0 0 0 0 0 0 0 0 0 0 0 0 0 0 0 0 0
0 0 0 0 0 0 0 0 0 0 0 0 0 0 0 0 0 0 0 0 0 0 0 0 0 0 0 0 0 0 0 0 0 0 0 0 0 0
0 0 0 0 0 0 0 0 0 0 0 0 0 0 0 0 0 0 0 0 0 0 0 0 0 0 0 0 0 0 0 0 0 0 0 0 0 0
0 0 0 0 0 0 0 0 0 0 0 0 0 0 0 0 0 0 0 0 0 0 0 0 0 0 0 0 0 0 0 0 0 0 0 0 0 0
0 0 0 0 0 0 0 0 0 0 0 0 0 0 0 0 0 0 0 0 0 0 0 0 0 0 0 0 0 0 0 0 0 0 0 0 0 0
Height
5679 5681 5682 5684 5685 5686 5686 5687 5687 5688 5689 5689 5688 5687 5685 5684 5682 5679 5677 5675 5673 5671 5669 5668 5666 5664 5663 5661 5660 5658 5657 5655 5653 5651 5648 5646 5643 5640
5669 5671 5672 5674 5675 5676 5676 5676 5677 5677 5677 5678 5677 5676 5674 5672 5671 5668 5666 5664 5662 5661 5659 5657 5655 5654 5652 5651 5650 5648 5647 5645 5643 5640 5638 5635 5633 5630
5659 5660 5662 5663 5664 5665 5665 5666 5666 5666 5665 5666 5666 5665 5663 5661 5659 5657 5655 5653 5651 5650 5648 5646 5645 5643 5642 5641 5640 5638 5636 5634 5632 5630 5627 5625 5623 5620
5649 5650 5652 5653 5653 5655 5655 5655 5655 5655 5654 5654 5654 5653 5651 5649 5647 5645 5643 5642 5640 5639 5637 5636 5634 5633 5632 5630 5629 5628 5626 5624 5622 5620 5618 5616 5613 5610
5638 5640 5641 5642 5643 5644 5644 5644 5644 5644 5643 5643 5642 5641 5639 5638 5636 5634 5632 5630 5629 5628 5626 5625 5623 5622 5621 5620 5618 5617 5615 5614 5612 5610 5607 5605 5603 5600
5628 5629 5630 5631 5632 5633 5633 5633 5633 5632 5632 5631 5630 5629 5628 5626 5624 5623 5621 5620 5618 5617 5616 5614 5613 5612 5611 5610 5608 5607 5605 5603 5601 5599 5597 5595 5593 5590
5618 5619 5619 5620 5620 5621 5621 5622 5621 5621 5621 5620 5619 5618 5616 5615 5613 5611 5610 5609 5608 5607 5605 5604 5602 5601 5600 5599 5597 5596 5594 5593 5591 5589 5587 5585 5583 5581
5607 5608 5608 5609 5609 5609 5610 5610 5610 5610 5609 5608 5608 5606 5605 5604 5602 5601 5599 5599 5598 5598 5595 5594 5592 5591 5589 5589 5587 5585 5584 5583 5581 5579 5577 5575 5573 5572
5595 5597 5597 5598 5598 5599 5599 5599 5598 5598 5598 5598 5597 5595 5594 5593 5592 5591 5589 5588 5587 5586 5585 5584 5582 5581 5580 5578 5577 5575 5574 5572 5571 5569 5568 5566 5564 5562
5584 5585 5586 5587 5588 5588 5589 5589 5588 5587 5587 5587 5586 5584 5583 5582 5581 5580 5579 5578 5577 5576 5574 5573 5572 5570 5569 5568 5567 5565 5564 5563 5561 5560 5558 5556 5555 5553
5573 5574 5576 5577 5578 5577 5578 5578 5578 5577 5576 5575 5574 5573 5572 5571 5570 5569 5569 5568 5567 5566 5565 5564 5562 5560 5559 5558 5557 5556 5555 5554 5552 5551 5549 5547 5546 5544
5562 5563 5565 5566 5566 5566 5566 5567 5567 5566 5566 5565 5564 5563 5561 5560 5560 5559 5558 5557 5557 5556 5555 5554 5552 5551 5550 5549 5547 5546 5545 5544 5543 5541 5540 5538 5537 5535
5551 5552 5554 5554 5554 5555 5555 5555 5555 5555 5554 5554 5553 5553 5552 5551 5550 5549 5548 5547 5547 5546 5546 5544 5543 5541 5540 5540 5538 5537 5536 5534 5533 5532 5530 5529 5528 5526
5540 5541 5542 5543 5543 5543 5543 5544 5544 5543 5543 5543 5542 5542 5541 5541 5540 5539 5539 5538 5537 5536 5535 5534 5533 5531 5531 5530 5529 5528 5526 5525 5524 5523 5522 5520 5518 5517
5528 5530 5531 5532 5532 5532 5532 5532 5532 5532 5532 5532 5531 5531 5531 5530 5529 5529 5528 5528 5527 5526 5525 5524 5523 5522 5521 5520 5520 5519 5518 5516 5515 5514 5513 5512 5510 5509
5517 5519 5520 5521 5521 5521 5521 5521 5521 5521 5521 5521 5521 5520 5520 5519 5519 5518 5518 5518 5517 5517 5515 5514 5513 5512 5511 5510 5510 5509 5508 5507 5507 5505 5504 5503 5502 5500
5507 5508 5509 5510 5510 5510 5510 5510 5510 5510 5510 5510 5510 5510 5509 5509 5508 5508 5507 5507 5507 5507 5506 5505 5504 5503 5502 5501 5500 5499 5499 5498 5498 5497 5496 5495 5494 5493
5496 5498 5499 5499 5500 5500 5500 5500 5500 5500 5500 5500 5500 5499 5499 5498 5498 5498 5497 5497 5497 5497 5496 5495 5494 5493 5493 5492 5492 5490 5490 5489 5489 5488 5487 5487 5487 5486
5486 5488 5489 5489 5489 5490 5490 5490 5490 5490 5489 5489 5489 5489 5489 5489 5488 5488 5488 5488 5488 5487 5487 5486 5485 5484 5484 5484 5483 5482 5481 5481 5480 5480 5479 5479 5479 5478
5477 5478 5479 5479 5479 5479 5479 5479 5479 5479 5479 5479 5479 5479 5479 5479 5479 5479 5479 5479 5478 5478 5477 5477 5476 5475 5475 5475 5475 5474 5473 5473 5472 5472 5472 5471 5471 5470
5468 5469 5469 5470 5470 5470 5470 5469 5469 5469 5470 5470 5470 5470 5470 5469 5469 5470 5470 5469 5469 5469 5469 5469 5467 5466 5466 5466 5466 5467 5466 5465 5464 5465 5464 5464 5464 5464
5459 5460 5460 5461 5461 5460 5460 5460 5460 5460 5460 5461 5461 5461 5460 5460 5460 5461 5461 5461 5461 5461 5460 5460 5459 5458 5458 5458 5458 5459 5458 5458 5457 5457 5457 5458 5457 5457
5451 5451 5451 5452 5451 5451 5451 5451 5451 5451 5451 5452 5451 5451 5451 5451 5451 5451 5452 5452 5452 5452 5452 5451 5451 5450 5450 5450 5450 5451 5451 5451 5451 5451 5451 5450 5450 5450
Wind_Speed
40 40 39 39 39 38 38 39 39 39 39 39 39 39 40 40 40 41 41 41 40 40 41 41 40 40 39 39 38 38 38 38 40 41 42 43 42 41
39 40 40 39 39 39 39 39 39 39 39 39 40 41 41 42 42 41 41 41 41 41 41 40 39 38 39 38 38 38 39 39 40 41 41 41 42 41
39 40 41 40 40 40 40 40 40 41 41 41 41 42 42 42 42 42 42 42 42 41 40 40 39 39 39 39 40 40 39 39 40 40 39 40 40 40
38 40 41 42 41 41 40 40 40 41 42 42 43 44 43 44 44 43 43 42 41 41 40 40 40 40 40 40 40 40 40 40 40 39 39 38 39 39
39 40 41 41 42 41 41 41 42 41 42 42 43 44 43 44 44 43 43 42 41 40 40 40 40 40 40 40 40 40 40 39 39 39 38 39 38 37
39 40 41 41 42 42 41 41 42 42 42 42 43 43 43 43 43 42 41 41 40 40 40 40 40 40 40 40 39 39 39 39 39 38 38 38 37 36
39 40 40 41 42 42 42 42 42 42 42 42 42 42 42 41 41 40 40 39 39 40 40 39 40 40 39 38 38 38 38 39 39 39 38 38 37 36
39 39 40 40 41 42 43 43 42 42 41 41 41 41 41 39 38 37 38 38 38 38 38 38 38 38 38 37 37 37 37 37 37 37 37 36 35 35
39 39 39 38 39 40 41 41 41 41 41 41 41 41 40 39 38 38 38 38 38 38 37 37 37 37 37 36 37 36 36 36 35 35 34 34 34 34
39 38 38 38 38 39 40 40 41 41 41 41 41 40 40 40 39 38 37 36 37 37 37 37 37 36 36 36 36 35 35 35 35 34 34 34 33 32
39 39 38 39 40 40 40 40 40 41 41 40 40 40 40 39 38 37 36 36 35 36 36 37 36 36 36 35 35 34 34 34 33 34 34 33 32 32
39 40 39 39 39 39 39 39 39 39 40 39 39 38 38 38 37 37 36 36 35 35 35 35 35 35 35 35 35 35 35 34 33 34 33 32 31 31
39 40 40 39 39 39 39 38 38 39 38 38 38 37 37 37 37 36 36 36 36 35 35 35 35 35 34 34 34 34 35 34 33 33 32 31 31 32
39 39 39 39 38 38 38 37 37 37 37 36 36 36 36 36 37 36 36 36 35 35 35 35 34 34 33 33 33 33 34 34 32 31 31 31 31 31
37 37 38 37 37 36 36 36 36 36 36 36 36 35 36 36 36 36 35 35 35 35 35 34 34 34 34 34 33 33 33 33 32 32 31 31 30 30
36 36 37 37 37 36 35 36 36 36 36 36 36 36 36 36 36 36 35 35 35 35 34 34 34 34 34 34 33 33 32 32 32 32 31 30 29 29
36 36 36 36 36 35 35 35 35 36 35 35 35 35 35 35 35 35 35 35 35 33 33 34 34 33 33 32 32 31 31 31 30 30 30 29 29 28
35 35 35 36 36 36 35 34 34 34 34 34 34 34 34 34 34 34 33 33 33 33 33 33 32 31 31 31 30 30 30 29 29 29 29 29 28 28
33 33 33 33 33 34 34 34 35 35 34 34 33 33 33 33 33 32 32 31 31 32 31 31 31 31 31 30 30 29 29 28 28 28 28 27 26 26
32 32 32 32 32 32 33 33 33 34 33 33 32 32 31 31 31 30 30 31 30 30 30 30 30 30 29 29 28 28 27 26 26 26 26 25 25 24
30 30 31 31 31 31 31 31 31 31 31 31 31 30 30 30 29 29 29 30 29 29 29 30 29 28 28 27 26 25 25 24 24 24 23 23 23 23
28 29 29 30 30 30 30 29 29 29 30 30 30 30 29 29 29 29 29 28 28 28 28 28 28 27 27 26 25 24 23 23 23 22 22 22 22 22
28 28 28 28 28 28 28 28 29 29 29 29 30 30 29 29 28 28 29 28 28 27 27 27 27 26 26 25 24 23 22 22 22 22 21 21 21 21
Wind_Direction
258 258 259 262 265 265 267 269 272 274 275 277 278 279 281 283 284 285 285 285 285 285 285 285 284 282 282 283 283 284 285 286 288 289 289 288 289 290
258 258 259 261 264 266 267 270 272 274 276 278 279 280 283 284 284 284 284 284 283 283 285 284 283 283 283 283 284 284 285 287 288 290 291 290 290 291
258 259 260 261 263 265 268 270 272 274 275 277 279 281 283 283 284 284 283 283 282 282 283 283 282 283 283 283 284 284 285 287 289 290 290 291 292 292
261 261 261 262 264 265 268 270 272 274 276 277 279 280 282 283 284 284 283 282 282 281 281 282 283 283 283 284 284 284 285 287 289 290 290 291 291 291
263 264 263 263 265 266 268 270 272 273 275 277 279 280 282 283 283 283 283 282 282 282 283 284 284 284 284 284 284 284 285 287 288 289 290 290 291 291
265 266 265 264 266 268 269 270 271 272 274 276 278 280 282 283 283 283 282 282 281 282 283 283 283 284 284 284 285 285 286 286 287 288 290 291 291 290
264 266 268 268 268 268 269 270 271 272 274 275 277 280 282 283 283 282 281 281 282 282 283 283 283 284 284 285 285 285 286 286 287 287 288 290 291 291
263 265 267 269 268 269 270 271 271 272 274 275 277 279 281 282 283 283 281 282 282 282 283 284 284 284 283 283 284 285 285 286 288 289 289 289 289 290
262 264 266 267 269 269 271 272 272 272 274 276 278 279 280 280 281 282 282 281 282 282 283 284 284 285 284 282 282 282 284 287 288 290 291 291 290 290
262 263 265 267 269 270 271 272 273 273 275 276 278 279 280 279 279 280 280 281 282 282 282 284 285 284 284 282 281 283 283 286 288 289 290 291 291 291
261 262 265 268 269 271 272 273 274 274 274 276 277 278 279 279 278 279 279 280 282 282 283 285 286 285 283 282 282 283 283 286 288 289 289 290 290 290
261 263 266 268 270 270 272 273 274 274 274 275 277 277 278 278 278 278 278 279 281 282 285 286 286 284 282 282 283 283 285 287 288 288 288 288 289 290
261 264 265 268 269 270 272 273 274 274 275 275 276 276 277 278 277 277 278 279 281 281 282 285 286 284 281 281 282 283 284 285 286 288 288 288 289 291
262 264 265 267 269 270 272 273 274 275 276 275 275 275 277 277 276 277 277 279 280 281 283 285 285 283 281 281 281 283 285 285 285 286 287 288 290 291
261 262 263 265 267 269 271 273 273 274 276 274 274 275 276 275 275 275 276 277 278 279 281 283 285 283 281 281 281 282 284 284 285 285 287 288 289 290
261 262 263 263 265 268 271 272 273 274 275 275 274 276 275 274 274 274 274 276 277 279 280 281 282 283 282 282 283 282 282 283 283 284 286 288 289 290
263 263 263 265 265 267 271 272 273 274 274 275 274 275 275 274 274 275 275 275 277 278 279 280 281 282 283 283 284 283 282 282 282 283 284 286 288 289
264 264 264 266 266 268 270 271 271 272 272 274 274 275 275 274 274 274 275 275 276 277 278 279 280 283 284 285 285 284 281 281 281 282 282 285 286 287
265 264 264 266 268 269 270 271 271 270 271 272 273 273 274 275 274 273 273 274 275 276 278 279 281 283 284 285 284 283 281 282 282 281 282 283 284 285
266 265 265 266 269 270 272 273 272 271 270 270 272 273 274 274 273 272 272 273 274 275 278 280 281 282 283 283 282 280 281 282 281 281 282 282 283 284
267 267 268 268 270 271 273 273 272 271 270 270 271 273 273 272 272 271 273 273 273 274 277 280 281 281 281 281 280 279 280 280 281 281 281 281 282 284
265 267 269 269 270 271 272 271 270 270 269 270 272 273 272 271 271 271 272 273 275 276 277 278 280 279 278 277 277 277 279 280 281 280 280 282 283 285
265 267 268 269 270 271 272 271 271 271 271 272 274 274 273 272 271 272 272 273 275 276 276 276 278 279 277 276 275 276 277 278 279 280 281 282 284 286